Presure
294 300 307 284 309 287 301 317 324 317 355 331 350 267 285 153 243 231 215 219 225 198 198 212 171 197 198 205 200 200 215 220 213 181 181 182 189 208 205 195 262 241 212 210
292 297 347 339 286 307 301 323 311 304 314 343 413 330 303 295 277 246 239 223 226 236 225 205 200 163 235 193 215 200 148 202 192 176 177 173 194 222 205 189 265 242 237 204
373 369 366 324 315 334 320 384 345 236 307 322 280 92 370 266 297 284 276 256 257 207 212 200 218 237 227 216 216 205 223 216 207 185 184 209 196 197 207 193 199 255 233 229
411 421 433 439 409 358 364 354 371 299 317 146 297 355 360 360 344 155 139 249 243 266 237 220 235 233 207 216 196 177 223 199 184 193 207 190 187 213 192 207 180 209 251 230
384 389 435 355 354 365 345 339 384 347 304 316 309 331 370 354 341 139 241 252 253 248 251 244 224 221 235 212 209 209 204 218 202 175 205 179 198 216 215 166 184 194 261 233
370 391 374 351 368 349 358 354 368 373 149 126 206 330 199 144 339 297 274 244 244 239 237 240 220 217 216 211 201 201 211 199 211 196 192 189 209 194 173 211 221 201 192 245
382 379 391 362 350 257 342 352 338 188 209 301 233 410 249 131 218 234 199 264 241 234 242 234 228 226 218 208 210 191 202 202 211 202 196 193 207 188 200 209 223 203 203 251
381 407 361 360 339 336 339 340 360 343 316 95 292 387 165 245 134 257 265 237 240 243 237 234 228 219 216 209 210 214 208 199 178 199 189 201 177 216 185 206 226 204 197 193
395 386 361 355 99 337 338 347 341 315 302 296 339 456 326 189 124 279 262 238 243 236 246 235 234 226 215 207 212 215 181 200 185 203 190 190 213 184 212 197 176 189 188 189
411 367 337 341 338 333 346 347 316 304 232 326 251 332 319 294 276 247 255 241 241 229 235 244 228 195 217 208 203 210 191 189 203 169 175 174 208 202 189 201 211 229 192 192
390 352 365 340 343 342 352 325 297 159 317 81 427 339 306 227 268 246 247 242 239 244 244 253 224 216 195 193 209 202 204 200 208 178 204 209 192 213 200 216 210 209 219 191
367 364 342 339 338 350 325 301 298 308 319 384 457 318 305 271 273 226 119 248 233 242 245 240 226 210 219 210 208 208 200 202 205 189 195 196 202 198 189 219 207 209 210 199
391 365 355 341 340 311 302 299 303 310 344 502 348 305 300 274 259 245 252 244 243 244 241 229 226 225 221 211 179 211 201 202 211 203 198 193 204 200 199 208 197 222 207 220
344 338 333 327 308 307 305 295 309 331 403 487 324 304 283 265 249 248 175 237 242 239 244 229 232 230 215 209 212 202 187 198 208 205 218 181 209 181 180 197 204 221 195 211
335 325 315 309 305 298 295 305 312 354 538 384 304 298 269 254 248 242 160 148 207 240 236 234 228 232 223 214 218 211 206 209 185 204 224 197 221 191 190 198 217 192 218 211
312 309 297 292 297 299 309 311 326 353 485 306 288 287 262 251 244 215 243 248 241 244 245 245 237 229 229 226 225 217 190 221 226 215 222 226 199 192 187 209 204 205 211 210
305 300 305 301 293 255 301 298 321 352 434 306 294 267 226 248 243 240 246 230 136 158 229 225 230 234 230 226 222 222 223 229 225 225 218 208 203 197 199 207 216 211 213 211
294 293 299 299 309 320 326 329 338 444 336 305 275 145 255 249 229 229 239 236 235 234 235 236 242 228 223 223 218 209 187 209 204 203 202 203 209 213 211 211 204 207 214 221
325 335 334 343 360 365 318 394 447 121 314 299 273 261 250 246 226 224 253 237 237 235 238 223 233 228 201 206 211 223 223 211 203 222 213 208 201 205 207 204 204 219 216 222
312 316 332 333 345 368 388 474 436 348 316 313 274 262 249 253 241 232 239 248 245 241 233 231 228 214 218 218 212 212 211 216 221 213 204 205 209 207 200 215 216 204 228 234
310 317 329 340 359 377 388 431 416 314 317 313 264 250 242 235 245 238 236 246 235 234 233 225 214 213 210 208 217 218 214 218 210 212 210 207 206 196 210 214 219 216 217 226
340 344 344 355 370 366 358 410 361 308 317 310 266 250 241 239 239 242 232 245 240 233 234 229 219 213 211 210 211 201 201 207 211 196 200 206 189 203 205 213 185 206 216 233
366 344 354 399 236 356 358 411 305 305 313 298 272 253 242 242 233 224 252 246 244 238 227 229 227 220 219 218 214 215 212 203 202 204 202 186 200 172 211 189 225 235 230 248
348 341 327 335 347 353 333 291 310 310 306 285 279 265 254 241 197 222 157 209 203 238 235 222 221 226 226 220 216 212 213 212 198 198 215 215 211 217 200 172 245 211 184 222
314 312 303 297 266 290 303 289 304 305 298 282 277 266 255 247 239 242 235 217 194 231 227 229 232 231 228 218 214 213 224 220 219 219 222 230 234 217 235 224 228 231 226 236
299 291 308 307 308 312 298 289 311 295 302 286 277 269 253 241 241 243 237 237 216 207 219 221 218 229 235 235 236 236 222 225 201 226 241 243 242 221 238 229 238 239 238 232
186 287 272 271 242 268 280 203 279 281 284 282 284 260 197 240 235 192 239 240 230 233 197 230 230 220 223 224 225 224 224 226 225 229 234 238 225 226 240 237 225 224 243 227
Wind_Speed
83 84 86 75 82 88 78 83 75 78 82 103 108 100 104 36 106 105 95 97 97 82 73 80 55 65 63 60 55 54 54 42 34 41 41 41 35 26 28 30 24 25 29 30
85 87 86 86 92 90 81 85 78 83 87 85 91 72 96 103 109 111 109 98 99 101 94 72 64 50 65 56 64 57 30 39 32 42 44 38 31 26 27 27 21 28 30 33
91 84 89 78 78 86 88 78 87 58 78 73 54 15 77 83 96 96 100 106 99 77 76 71 76 71 62 63 62 57 54 42 31 41 42 24 30 33 29 31 29 25 28 34
52 56 60 60 66 79 84 84 85 82 68 19 47 62 71 74 77 39 29 84 83 74 77 78 71 68 67 63 50 41 48 35 44 32 29 40 36 23 36 34 28 27 27 26
48 45 53 55 66 71 86 80 70 68 63 62 61 56 73 77 73 27 77 73 73 71 66 69 73 71 58 60 58 46 42 46 37 47 39 46 33 15 27 32 33 35 24 26
51 47 70 68 62 68 70 62 60 57 26 17 44 53 46 24 70 68 74 79 77 72 72 74 76 72 67 64 51 43 47 40 35 40 42 42 38 32 31 29 29 39 33 28
52 48 72 59 70 51 58 53 56 36 36 57 49 58 44 17 43 49 47 74 73 67 75 75 74 71 70 64 59 52 43 41 37 35 31 46 28 38 27 29 28 41 34 29
51 51 73 70 72 65 59 57 51 55 57 27 43 55 22 53 21 64 70 79 75 79 80 75 73 72 70 62 60 57 48 42 49 35 40 42 35 24 41 32 29 36 40 38
48 73 72 65 10 65 60 53 55 61 61 48 53 66 81 36 23 73 79 83 81 82 78 74 69 74 65 60 61 58 53 46 46 44 42 45 38 42 28 39 36 37 43 43
56 74 74 75 69 61 56 54 62 62 41 51 34 67 81 77 78 74 85 85 83 82 76 68 72 59 68 60 51 56 54 49 44 41 47 44 38 31 40 34 33 23 46 47
63 71 69 64 64 57 56 59 63 29 49 18 38 87 86 58 88 78 89 88 88 80 71 63 73 73 58 52 63 52 55 49 51 52 43 53 44 29 34 29 32 35 33 49
66 67 66 67 61 55 59 65 59 50 47 45 55 84 83 78 87 78 27 79 78 70 67 64 75 70 69 63 62 60 53 53 53 51 45 46 41 38 48 30 35 41 40 50
66 71 68 58 53 59 60 53 49 46 44 41 83 90 90 91 90 85 82 79 73 70 74 76 77 73 70 64 42 66 56 56 53 46 46 50 44 45 43 36 51 38 42 39
64 61 57 54 57 54 51 51 44 40 37 49 85 87 85 88 86 83 42 75 73 71 74 70 67 71 66 63 67 57 53 58 56 41 55 51 50 51 43 44 50 38 54 44
56 54 55 55 52 51 49 46 43 37 29 70 87 84 83 89 83 79 36 29 57 73 68 65 63 66 71 66 68 61 58 59 42 49 59 46 48 53 54 51 44 53 46 47
47 45 47 46 45 43 41 41 38 37 45 87 88 89 89 87 81 65 74 71 72 70 65 64 65 64 65 66 62 61 55 60 59 54 54 48 49 54 51 48 52 52 50 51
37 36 35 36 40 40 42 49 45 45 52 87 87 89 73 87 80 76 75 66 26 32 60 57 60 62 62 59 55 58 57 57 55 54 48 47 50 53 55 53 54 54 53 54
30 32 32 33 32 35 42 48 50 39 78 88 93 32 92 86 71 67 72 68 68 65 61 59 60 60 57 54 53 51 42 51 52 55 50 50 52 50 53 56 56 57 59 63
24 23 20 20 19 25 31 29 39 18 79 91 95 91 85 84 63 43 79 66 68 65 62 54 56 54 53 49 51 52 51 52 53 50 50 52 54 56 58 57 58 69 67 69
24 20 15 16 13 20 23 48 48 73 85 89 92 89 83 85 74 56 65 72 63 64 63 57 51 51 53 48 50 52 53 51 51 52 53 55 58 61 58 70 69 45 78 76
21 18 14 14 15 21 31 38 57 76 76 76 85 82 75 65 75 60 57 69 58 63 64 57 52 54 53 51 50 52 50 54 54 54 56 59 63 44 65 71 76 68 66 74
9 13 17 17 21 32 38 42 60 68 72 75 88 85 76 71 66 66 54 63 59 58 62 59 56 56 55 53 54 54 54 53 56 48 58 65 40 57 62 71 49 57 71 82
29 29 36 36 28 30 37 33 54 59 62 65 78 84 71 71 53 53 68 58 62 60 57 58 60 61 62 61 60 61 61 58 60 64 57 40 58 43 71 56 82 87 84 75
44 51 49 42 30 29 41 45 51 56 58 67 73 80 81 63 49 44 28 43 43 56 60 57 60 66 67 66 66 65 67 68 51 51 78 78 69 79 55 46 83 62 60 69
50 50 40 39 25 42 43 41 43 47 53 61 67 76 75 66 58 61 52 48 42 53 57 62 66 67 69 66 68 69 77 76 78 78 81 87 84 72 84 77 77 82 81 84
42 28 33 29 25 29 36 34 34 40 46 52 60 67 66 55 58 60 55 59 51 38 54 59 57 65 68 71 74 73 63 66 49 69 81 81 81 77 85 83 86 86 86 81
10 29 32 29 18 38 33 26 37 39 42 46 47 43 29 56 55 29 63 67 57 63 40 63 62 61 65 70 73 73 73 76 75 79 79 80 75 78 84 86 71 72 93 77
Wind_Direction
270 267 264 242 257 236 244 245 241 236 241 239 239 242 237 228 233 235 239 242 243 246 245 246 250 257 253 251 266 267 263 264 274 245 259 265 271 287 284 285 291 276 271 275
267 264 253 251 241 252 239 247 235 231 238 238 229 231 236 236 234 234 236 239 241 245 242 241 247 245 245 249 249 260 236 262 239 247 257 263 266 311 275 272 306 278 274 273
256 252 251 244 244 246 241 235 236 227 232 235 230 214 227 232 234 234 235 239 241 237 236 240 240 240 235 238 240 251 252 252 256 239 250 284 263 267 277 269 280 292 271 272
239 233 232 225 224 230 234 234 234 231 229 255 238 223 218 221 217 225 225 230 233 236 230 232 233 231 236 233 238 228 245 242 234 238 258 257 269 291 268 273 269 287 285 275
241 237 212 210 222 219 226 231 231 227 220 230 222 219 214 210 205 204 222 224 228 225 227 225 225 229 217 229 236 240 243 248 243 245 260 257 261 300 292 259 272 277 297 264
235 229 199 204 205 209 218 221 221 219 210 211 212 216 217 204 202 212 218 216 216 216 218 216 219 222 216 222 229 227 238 241 248 246 249 246 275 256 261 284 282 276 282 275
220 217 195 195 194 202 211 213 212 198 213 214 221 213 197 220 198 198 210 213 214 213 213 214 214 214 214 223 230 234 233 237 246 238 240 254 262 260 272 278 288 277 283 289
212 205 188 188 194 200 202 204 201 199 207 198 204 206 198 192 242 199 201 206 209 209 212 212 210 213 214 220 227 233 233 232 232 238 233 256 257 271 265 275 289 273 282 287
199 181 184 183 195 195 198 196 188 196 199 195 205 204 180 205 230 192 195 202 205 208 209 209 208 210 211 219 226 228 230 234 226 250 234 252 271 259 267 267 271 275 280 284
181 178 179 185 187 191 193 186 186 195 188 199 204 192 177 179 182 191 194 200 202 208 210 204 205 207 210 216 220 227 233 226 237 247 248 259 262 254 260 271 272 290 272 277
173 180 180 178 186 183 182 178 187 190 194 185 202 181 175 181 184 190 197 200 201 203 206 202 204 210 215 224 224 224 230 230 241 242 251 263 250 274 254 277 266 272 279 275
174 177 172 180 179 177 174 180 184 186 196 206 191 177 174 175 183 192 218 196 203 201 200 197 205 212 213 216 223 229 229 234 236 231 238 247 260 252 257 278 262 266 268 267
150 160 169 168 169 170 175 177 180 188 200 188 184 175 174 180 186 195 195 200 199 198 200 201 203 209 213 216 235 228 229 234 240 232 237 239 260 258 264 267 263 284 271 293
151 154 157 161 166 169 171 177 182 195 201 188 179 175 177 182 191 194 203 200 198 199 202 205 206 210 214 218 224 224 238 236 244 239 258 246 260 265 271 272 274 285 272 279
147 151 157 162 166 165 173 179 183 189 181 180 174 173 182 188 192 197 211 215 200 203 204 204 208 211 217 221 227 231 237 244 245 245 256 246 266 258 261 271 279 275 286 289
145 151 157 164 165 170 173 181 185 181 163 175 174 175 182 189 194 200 198 195 199 203 203 203 208 213 216 222 226 232 238 243 245 250 255 260 251 257 266 272 270 274 282 283
148 150 159 169 174 177 179 179 187 181 177 176 172 179 188 191 195 199 198 201 224 223 207 207 212 211 216 221 224 232 236 239 243 248 252 254 254 258 265 273 282 281 285 286
154 162 170 180 190 194 193 191 188 182 180 175 178 209 187 188 200 202 201 203 206 210 210 210 205 211 216 217 223 235 255 242 247 250 255 259 267 274 274 277 276 282 287 294
118 115 124 134 159 180 188 192 173 210 178 178 183 186 191 192 211 208 197 202 205 211 213 213 211 214 228 231 234 234 239 246 251 258 263 266 270 274 277 278 284 289 292 294
130 132 129 139 155 185 188 153 164 174 179 180 183 186 193 193 203 205 203 207 206 208 215 216 216 221 225 227 234 242 247 253 255 260 263 268 273 276 279 283 287 284 291 293
135 129 125 149 165 162 163 164 167 176 180 179 183 192 201 206 204 207 210 211 207 210 215 218 221 225 231 234 238 244 249 251 255 261 266 269 271 275 279 281 285 286 293 295
131 124 131 136 146 146 153 159 172 175 178 179 184 194 202 208 207 206 209 214 214 215 220 221 224 231 236 239 242 250 255 256 258 268 266 266 273 275 278 281 274 290 291 291
108 101 86 98 155 143 157 159 167 174 181 176 186 195 204 208 212 210 213 215 217 219 223 225 227 234 237 240 243 247 251 257 260 262 268 270 281 275 280 278 284 285 289 290
100 101 98 89 92 130 163 162 170 175 177 180 189 197 202 210 215 215 234 222 228 224 226 227 230 234 239 242 245 250 252 254 270 276 264 269 273 275 285 286 280 287 289 293
95 105 120 138 128 150 160 159 168 173 178 185 192 199 205 211 215 217 214 216 232 223 226 232 236 237 239 244 248 252 252 255 258 263 265 265 268 278 274 282 283 284 290 287
89 101 114 127 130 157 160 157 169 172 180 187 196 202 210 214 218 221 222 225 230 244 231 233 243 241 244 247 249 250 263 261 277 265 264 266 268 280 276 282 281 280 281 287
203 102 126 134 137 151 150 182 168 175 182 192 197 204 216 218 222 225 227 231 236 238 243 240 246 253 251 251 254 257 260 261 264 266 268 270 275 277 274 278 282 284 278 289